Time,TemperatureF,DewpointF,PressureIn,WindDirection,WindDirectionDegrees,WindSpeedMPH,WindSpeedGustMPH,Humidity,HourlyPrecipIn,Conditions,Clouds,dailyrainin,SoftwareType,DateUTC
2013-02-07 00:00:00,34.5,25.7,29.16,North,0,0.0,2.0,70,0.00,,SKC,0.00,WeatherDisplay:10.37,2013-02-07 05:00:00,
2013-02-07 00:05:00,34.2,25.7,29.16,NW,315,1.1,0.0,71,0.00,,SKC,0.00,WeatherDisplay:10.37,2013-02-07 05:05:00,
2013-02-07 00:10:00,34.0,25.6,29.16,SE,135,0.0,0.0,71,0.00,,SKC,0.00,WeatherDisplay:10.37,2013-02-07 05:10:00,
2013-02-07 00:15:00,33.8,25.4,29.16,South,180,0.0,0.0,71,0.00,,SKC,0.00,WeatherDisplay:10.37,2013-02-07 05:15:00,
2013-02-07 00:20:00,33.6,24.9,29.16,North,0,0.0,0.0,70,0.00,,SKC,0.00,WeatherDisplay:10.37,2013-02-07 05:20:00,
2013-02-07 00:25:00,33.6,24.9,29.16,North,0,0.0,0.0,70,0.00,,SKC,0.00,WeatherDisplay:10.37,2013-02-07 05:25:00,
2013-02-07 00:30:00,33.6,24.9,29.16,North,0,0.0,0.0,70,0.00,,SKC,0.00,WeatherDisplay:10.37,2013-02-07 05:30:00,
2013-02-07 00:35:00,33.6,24.9,29.16,North,0,1.1,0.0,70,0.00,,SKC,0.00,WeatherDisplay:10.37,2013-02-07 05:35:00,
2013-02-07 00:40:00,33.6,24.9,29.16,North,0,0.0,0.0,70,0.00,,SKC,0.00,WeatherDisplay:10.37,2013-02-07 05:40:00,
2013-02-07 00:45:00,33.6,25.2,29.16,North,0,0.0,0.0,71,0.00,,SKC,0.00,WeatherDisplay:10.37,2013-02-07 05:45:00,
2013-02-07 00:50:00,33.8,25.7,29.16,North,0,0.0,0.0,72,0.00,,SKC,0.00,WeatherDisplay:10.37,2013-02-07 05:50:00,
2013-02-07 00:55:00,34.0,25.9,29.17,NW,315,0.0,0.0,72,0.00,,SKC,0.00,WeatherDisplay:10.37,2013-02-07 05:55:00,
2013-02-07 01:00:00,33.8,25.4,29.17,West,270,1.1,0.0,71,0.00,,SKC,0.00,WeatherDisplay:10.37,2013-02-07 06:00:00,
2013-02-07 01:05:00,33.8,25.4,29.17,West,270,0.0,0.0,71,0.00,,SKC,0.00,WeatherDisplay:10.37,2013-02-07 06:05:00,
2013-02-07 01:10:00,33.6,25.2,29.17,South,180,0.0,0.0,71,0.00,,SKC,0.00,WeatherDisplay:10.37,2013-02-07 06:10:00,
2013-02-07 01:15:00,33.4,25.4,29.17,NW,315,1.1,0.0,72,0.00,,SKC,0.00,WeatherDisplay:10.37,2013-02-07 06:15:00,
2013-02-07 01:20:00,33.4,25.0,29.17,NW,315,0.0,0.0,71,0.00,,SKC,0.00,WeatherDisplay:10.37,2013-02-07 06:20:00,
2013-02-07 01:25:00,33.8,25.0,29.17,North,0,2.3,0.0,70,0.00,,SKC,0.00,WeatherDisplay:10.37,2013-02-07 06:25:00,
2013-02-07 01:30:00,34.0,24.5,29.17,North,0,0.0,0.0,68,0.00,,SKC,0.00,WeatherDisplay:10.37,2013-02-07 06:30:00,
2013-02-07 01:36:00,34.2,24.3,29.17,North,0,0.0,0.0,67,0.00,,SKC,0.00,WeatherDisplay:10.37,2013-02-07 06:36:00,
2013-02-07 01:41:00,34.5,24.3,29.17,South,180,0.0,0.0,66,0.00,,SKC,0.00,WeatherDisplay:10.37,2013-02-07 06:41:00,
2013-02-07 01:46:00,35.1,24.5,29.18,North,0,0.0,0.0,65,0.00,,SKC,0.00,WeatherDisplay:10.37,2013-02-07 06:46:00,
2013-02-07 01:51:00,35.2,23.9,29.18,NW,315,0.0,0.0,63,0.00,,SKC,0.00,WeatherDisplay:10.37,2013-02-07 06:51:00,
2013-02-07 01:56:00,35.2,23.9,29.18,North,0,1.1,0.0,63,0.00,,SKC,0.00,WeatherDisplay:10.37,2013-02-07 06:56:00,
2013-02-07 02:01:00,36.0,24.2,29.18,SE,135,0.0,0.0,62,0.00,,SKC,0.00,WeatherDisplay:10.37,2013-02-07 07:01:00,
2013-02-07 02:06:00,36.1,24.4,29.17,NE,45,1.1,0.0,62,0.00,,SKC,0.00,WeatherDisplay:10.37,2013-02-07 07:06:00,
2013-02-07 02:11:00,36.3,24.5,29.17,SE,135,1.1,0.0,62,0.00,,SKC,0.00,WeatherDisplay:10.37,2013-02-07 07:11:00,
2013-02-07 02:16:00,36.3,24.5,29.17,East,90,0.0,0.0,62,0.00,,SKC,0.00,WeatherDisplay:10.37,2013-02-07 07:16:00,
2013-02-07 02:21:00,36.5,24.7,29.18,NE,45,0.0,0.0,62,0.00,,SKC,0.00,WeatherDisplay:10.37,2013-02-07 07:21:00,
2013-02-07 02:26:00,36.7,24.1,29.18,SE,135,0.0,0.0,60,0.00,,SKC,0.00,WeatherDisplay:10.37,2013-02-07 07:26:00,
2013-02-07 02:31:00,37.0,25.6,29.18,South,180,0.0,0.0,63,0.00,,SKC,0.00,WeatherDisplay:10.37,2013-02-07 07:31:00,
2013-02-07 02:36:00,37.2,25.4,29.18,NE,45,1.1,0.0,62,0.00,,SKC,0.00,WeatherDisplay:10.37,2013-02-07 07:36:00,
2013-02-07 02:41:00,37.4,25.2,29.18,NE,45,0.0,0.0,61,0.00,,SKC,0.00,WeatherDisplay:10.37,2013-02-07 07:41:00,
2013-02-07 02:46:00,37.6,24.9,29.18,South,180,0.0,0.0,60,0.00,,SKC,0.00,WeatherDisplay:10.37,2013-02-07 07:46:00,
2013-02-07 02:51:00,37.0,24.4,29.18,South,180,0.0,0.0,60,0.00,,SKC,0.00,WeatherDisplay:10.37,2013-02-07 07:51:00,
2013-02-07 02:56:00,36.9,24.3,29.18,NW,315,1.1,0.0,60,0.00,,SKC,0.00,WeatherDisplay:10.37,2013-02-07 07:56:00,
2013-02-07 03:01:00,36.9,24.3,29.18,North,0,1.1,0.0,60,0.00,,SKC,0.00,WeatherDisplay:10.37,2013-02-07 08:01:00,
2013-02-07 03:06:00,36.9,24.3,29.18,North,0,0.0,0.0,60,0.00,,SKC,0.00,WeatherDisplay:10.37,2013-02-07 08:06:00,
2013-02-07 03:11:00,36.7,22.4,29.18,NE,45,1.1,0.0,56,0.00,,SKC,0.00,WeatherDisplay:10.37,2013-02-07 08:11:00,
2013-02-07 03:16:00,36.9,23.9,29.18,NE,45,1.1,0.0,59,0.00,,SKC,0.00,WeatherDisplay:10.37,2013-02-07 08:16:00,
2013-02-07 03:21:00,36.9,23.9,29.18,NE,45,0.0,0.0,59,0.00,,SKC,0.00,WeatherDisplay:10.37,2013-02-07 08:21:00,
2013-02-07 03:26:00,37.6,24.5,29.18,SW,225,0.0,0.0,59,0.00,,SKC,0.00,WeatherDisplay:10.37,2013-02-07 08:26:00,
2013-02-07 03:31:00,37.6,24.9,29.18,NW,315,0.0,0.0,60,0.00,,SKC,0.00,WeatherDisplay:10.37,2013-02-07 08:31:00,
2013-02-07 03:36:00,37.2,24.6,29.18,NE,45,0.0,0.0,60,0.00,,SKC,0.00,WeatherDisplay:10.37,2013-02-07 08:36:00,
2013-02-07 03:41:00,37.0,24.4,29.18,South,180,0.0,0.0,60,0.00,,SKC,0.00,WeatherDisplay:10.37,2013-02-07 08:41:00,
2013-02-07 03:46:00,37.0,24.0,29.18,North,0,0.0,0.0,59,0.00,,SKC,0.00,WeatherDisplay:10.37,2013-02-07 08:46:00,
2013-02-07 03:51:00,36.9,23.9,29.18,NW,315,0.0,0.0,59,0.00,,SKC,0.00,WeatherDisplay:10.37,2013-02-07 08:51:00,
2013-02-07 03:56:00,36.9,24.3,29.18,NW,315,0.0,0.0,60,0.00,,SKC,0.00,WeatherDisplay:10.37,2013-02-07 08:56:00,
2013-02-07 04:01:00,36.9,24.3,29.18,South,180,0.0,0.0,60,0.00,,SKC,0.00,WeatherDisplay:10.37,2013-02-07 09:01:00,
2013-02-07 04:06:00,36.9,24.7,29.19,North,0,0.0,0.0,61,0.00,,SKC,0.00,WeatherDisplay:10.37,2013-02-07 09:06:00,
2013-02-07 04:11:00,36.7,22.9,29.19,North,0,0.0,0.0,57,0.00,,SKC,0.00,WeatherDisplay:10.37,2013-02-07 09:11:00,
2013-02-07 04:16:00,36.3,22.5,29.19,NW,315,0.0,0.0,57,0.00,,SKC,0.00,WeatherDisplay:10.37,2013-02-07 09:16:00,
2013-02-07 04:21:00,36.3,22.5,29.19,North,0,0.0,0.0,57,0.00,,SKC,0.00,WeatherDisplay:10.37,2013-02-07 09:21:00,
2013-02-07 04:26:00,36.5,22.7,29.19,North,0,1.1,0.0,57,0.00,,SKC,0.00,WeatherDisplay:10.37,2013-02-07 09:26:00,
2013-02-07 04:31:00,36.5,23.1,29.20,North,0,1.1,0.0,58,0.00,,SKC,0.00,WeatherDisplay:10.37,2013-02-07 09:31:00,
2013-02-07 04:36:00,36.5,23.1,29.20,North,0,0.0,0.0,58,0.00,,SKC,0.00,WeatherDisplay:10.37,2013-02-07 09:36:00,
2013-02-07 04:41:00,36.3,24.1,29.20,NW,315,0.0,0.0,61,0.00,,SKC,0.00,WeatherDisplay:10.37,2013-02-07 09:41:00,
2013-02-07 04:46:00,36.0,23.8,29.20,NW,315,1.1,0.0,61,0.00,,SKC,0.00,WeatherDisplay:10.37,2013-02-07 09:46:00,
2013-02-07 04:51:00,35.8,23.6,29.21,South,180,1.1,0.0,61,0.00,,SKC,0.00,WeatherDisplay:10.37,2013-02-07 09:51:00,
2013-02-07 04:56:00,35.6,23.5,29.21,South,180,1.1,0.0,61,0.00,,SKC,0.00,WeatherDisplay:10.37,2013-02-07 09:56:00,
2013-02-07 05:01:00,35.4,23.3,29.21,NW,315,0.0,0.0,61,0.00,,SKC,0.00,WeatherDisplay:10.37,2013-02-07 10:01:00,
2013-02-07 05:07:00,35.4,23.3,29.22,NW,315,0.0,0.0,61,0.00,,SKC,0.00,WeatherDisplay:10.37,2013-02-07 10:07:00,
2013-02-07 05:12:00,35.1,23.3,29.21,NW,315,1.1,0.0,62,0.00,,SKC,0.00,WeatherDisplay:10.37,2013-02-07 10:12:00,
2013-02-07 05:17:00,34.9,23.2,29.21,NW,315,0.0,0.0,62,0.00,,SKC,0.00,WeatherDisplay:10.37,2013-02-07 10:17:00,
2013-02-07 05:22:00,34.5,23.2,29.21,NW,315,1.1,0.0,63,0.00,,SKC,0.00,WeatherDisplay:10.37,2013-02-07 10:22:00,
2013-02-07 05:27:00,34.3,23.4,29.21,NW,315,0.0,0.0,64,0.00,,SKC,0.00,WeatherDisplay:10.37,2013-02-07 10:27:00,
2013-02-07 05:32:00,34.3,23.8,29.22,NW,315,1.1,0.0,65,0.00,,SKC,0.00,WeatherDisplay:10.37,2013-02-07 10:32:00,
2013-02-07 05:37:00,34.3,23.8,29.21,NW,315,1.1,0.0,65,0.00,,SKC,0.00,WeatherDisplay:10.37,2013-02-07 10:37:00,
2013-02-07 05:42:00,34.3,24.5,29.21,North,0,0.0,0.0,67,0.00,,SKC,0.00,WeatherDisplay:10.37,2013-02-07 10:42:00,
2013-02-07 05:47:00,34.3,24.5,29.22,North,0,0.0,0.0,67,0.00,,SKC,0.00,WeatherDisplay:10.37,2013-02-07 10:47:00,
2013-02-07 05:52:00,34.2,24.3,29.22,SE,135,0.0,0.0,67,0.00,,SKC,0.00,WeatherDisplay:10.37,2013-02-07 10:52:00,
2013-02-07 05:57:00,34.0,24.5,29.21,NE,45,1.1,0.0,68,0.00,,SKC,0.00,WeatherDisplay:10.37,2013-02-07 10:57:00,
2013-02-07 06:02:00,34.0,24.5,29.21,NW,315,1.1,0.0,68,0.00,,SKC,0.00,WeatherDisplay:10.37,2013-02-07 11:02:00,
2013-02-07 06:07:00,33.8,24.7,29.21,South,180,1.1,0.0,69,0.00,,SKC,0.00,WeatherDisplay:10.37,2013-02-07 11:07:00,
2013-02-07 06:12:00,33.8,25.0,29.20,South,180,0.0,0.0,70,0.00,,SKC,0.00,WeatherDisplay:10.37,2013-02-07 11:12:00,
2013-02-07 06:17:00,33.8,24.7,29.20,SE,135,1.1,0.0,69,0.00,,SKC,0.00,WeatherDisplay:10.37,2013-02-07 11:17:00,
2013-02-07 06:22:00,34.0,25.2,29.20,SE,135,0.0,0.0,70,0.00,,SKC,0.00,WeatherDisplay:10.37,2013-02-07 11:22:00,
2013-02-07 06:27:00,34.0,24.9,29.20,NE,45,0.0,0.0,69,0.00,,SKC,0.00,WeatherDisplay:10.37,2013-02-07 11:27:00,
2013-02-07 06:32:00,34.5,25.0,29.20,SE,135,1.1,0.0,68,0.00,,SKC,0.00,WeatherDisplay:10.37,2013-02-07 11:32:00,
2013-02-07 06:37:00,34.9,25.0,29.20,NE,45,0.0,0.0,67,0.00,,SKC,0.00,WeatherDisplay:10.37,2013-02-07 11:37:00,
2013-02-07 06:42:00,35.4,24.8,29.20,East,90,0.0,0.0,65,0.00,,SKC,0.00,WeatherDisplay:10.37,2013-02-07 11:42:00,
2013-02-07 06:47:00,36.0,24.6,29.19,NE,45,0.0,0.0,63,0.00,,SKC,0.00,WeatherDisplay:10.37,2013-02-07 11:47:00,
2013-02-07 06:52:00,36.7,24.9,29.19,South,180,0.0,0.0,62,0.00,,SKC,0.00,WeatherDisplay:10.37,2013-02-07 11:52:00,
2013-02-07 06:57:00,37.4,26.3,29.19,NE,45,0.0,0.0,64,0.00,,SKC,0.00,WeatherDisplay:10.37,2013-02-07 11:57:00,
2013-02-07 07:02:00,37.9,26.1,29.20,NE,45,1.1,0.0,62,0.00,,SKC,0.00,WeatherDisplay:10.37,2013-02-07 12:02:00,
2013-02-07 07:07:00,37.9,26.1,29.19,NE,45,0.0,0.0,62,0.00,,SKC,0.00,WeatherDisplay:10.37,2013-02-07 12:07:00,
2013-02-07 07:12:00,38.3,25.6,29.20,SE,135,0.0,0.0,60,0.00,,SKC,0.00,WeatherDisplay:10.37,2013-02-07 12:12:00,
2013-02-07 07:17:00,38.5,25.8,29.20,East,90,1.1,0.0,60,0.00,,SKC,0.00,WeatherDisplay:10.37,2013-02-07 12:17:00,
2013-02-07 07:22:00,38.5,25.8,29.20,East,90,0.0,0.0,60,0.00,,SKC,0.00,WeatherDisplay:10.37,2013-02-07 12:22:00,
2013-02-07 07:27:00,38.7,25.1,29.20,NW,315,0.0,0.0,58,0.00,,SKC,0.00,WeatherDisplay:10.37,2013-02-07 12:27:00,
2013-02-07 07:32:00,38.7,25.1,29.20,SW,225,0.0,0.0,58,0.00,,SKC,0.00,WeatherDisplay:10.37,2013-02-07 12:32:00,
2013-02-07 07:37:00,38.8,25.3,29.21,SE,135,0.0,0.0,58,0.00,,SKC,0.00,WeatherDisplay:10.37,2013-02-07 12:37:00,
2013-02-07 07:42:00,38.8,25.3,29.21,South,180,0.0,0.0,58,0.00,,SKC,0.00,WeatherDisplay:10.37,2013-02-07 12:42:00,
2013-02-07 07:47:00,38.8,25.3,29.21,North,0,0.0,0.0,58,0.00,,SKC,0.00,WeatherDisplay:10.37,2013-02-07 12:47:00,
2013-02-07 07:52:00,38.7,25.1,29.21,East,90,1.1,0.0,58,0.00,,SKC,0.00,WeatherDisplay:10.37,2013-02-07 12:52:00,
2013-02-07 07:57:00,38.7,25.1,29.21,North,0,0.0,0.0,58,0.00,,SKC,0.00,WeatherDisplay:10.37,2013-02-07 12:57:00,
2013-02-07 08:02:00,38.7,25.6,29.21,North,0,0.0,0.0,59,0.00,,SKC,0.00,WeatherDisplay:10.37,2013-02-07 13:02:00,
2013-02-07 08:07:00,38.7,26.4,29.22,North,0,0.0,0.0,61,0.00,,SKC,0.00,WeatherDisplay:10.37,2013-02-07 13:07:00,
2013-02-07 08:12:00,38.7,27.1,29.22,South,180,0.0,0.0,63,0.00,,SKC,0.00,WeatherDisplay:10.37,2013-02-07 13:12:00,
2013-02-07 08:17:00,38.7,27.5,29.22,NE,45,0.0,0.0,64,0.00,,SKC,0.00,WeatherDisplay:10.37,2013-02-07 13:17:00,
2013-02-07 08:22:00,38.5,28.1,29.23,East,90,1.1,0.0,66,0.00,,SKC,0.00,WeatherDisplay:10.37,2013-02-07 13:22:00,
2013-02-07 08:27:00,38.5,28.1,29.24,NE,45,0.0,0.0,66,0.00,,SKC,0.00,WeatherDisplay:10.37,2013-02-07 13:27:00,
2013-02-07 08:32:00,38.5,28.5,29.24,North,0,0.0,0.0,67,0.00,,SKC,0.00,WeatherDisplay:10.37,2013-02-07 13:32:00,
2013-02-07 08:37:00,38.5,28.5,29.24,SE,135,0.0,0.0,67,0.00,,SKC,0.00,WeatherDisplay:10.37,2013-02-07 13:37:00,
2013-02-07 08:42:00,38.5,28.8,29.24,South,180,0.0,0.0,68,0.00,,SKC,0.00,WeatherDisplay:10.37,2013-02-07 13:42:00,
2013-02-07 08:47:00,38.5,28.8,29.24,NE,45,0.0,0.0,68,0.00,,SKC,0.00,WeatherDisplay:10.37,2013-02-07 13:47:00,
2013-02-07 08:52:00,38.3,28.3,29.24,North,0,0.0,0.0,67,0.00,,SKC,0.00,WeatherDisplay:10.37,2013-02-07 13:52:00,
2013-02-07 08:57:00,38.5,28.8,29.24,NE,45,0.0,0.0,68,0.00,,SKC,0.00,WeatherDisplay:10.37,2013-02-07 13:57:00,
2013-02-07 09:02:00,38.3,28.7,29.24,SW,225,0.0,0.0,68,0.00,,SKC,0.00,WeatherDisplay:10.37,2013-02-07 14:02:00,
2013-02-07 09:07:00,38.5,29.2,29.23,WSW,248,0.0,0.0,69,0.00,,SKC,0.00,WeatherDisplay:10.37,2013-02-07 14:07:00,
2013-02-07 09:12:00,38.5,29.9,29.23,NE,45,0.0,0.0,71,0.00,,SKC,0.00,WeatherDisplay:10.37,2013-02-07 14:12:00,
2013-02-07 09:18:00,38.5,30.2,29.24,NE,45,0.0,0.0,72,0.00,,SKC,0.00,WeatherDisplay:10.37,2013-02-07 14:18:00,
2013-02-07 09:23:00,38.5,30.6,29.23,NW,315,1.1,0.0,73,0.00,,SKC,0.00,WeatherDisplay:10.37,2013-02-07 14:23:00,
2013-02-07 09:28:00,38.7,30.7,29.23,NE,45,0.0,0.0,73,0.00,,SKC,0.00,WeatherDisplay:10.37,2013-02-07 14:28:00,
2013-02-07 09:33:00,38.7,30.7,29.23,NW,315,0.0,0.0,73,0.00,,SKC,0.00,WeatherDisplay:10.37,2013-02-07 14:33:00,
2013-02-07 09:38:00,38.7,31.1,29.23,SE,135,0.0,0.0,74,0.00,,SKC,0.00,WeatherDisplay:10.37,2013-02-07 14:38:00,
2013-02-07 09:43:00,38.7,31.4,29.23,North,0,1.1,0.0,75,0.00,,SKC,0.00,WeatherDisplay:10.37,2013-02-07 14:43:00,
2013-02-07 09:48:00,38.8,31.6,29.23,South,180,1.1,0.0,75,0.00,,SKC,0.00,WeatherDisplay:10.37,2013-02-07 14:48:00,
2013-02-07 09:53:00,38.8,31.6,29.23,SW,225,1.1,0.0,75,0.00,,SKC,0.00,WeatherDisplay:10.37,2013-02-07 14:53:00,
2013-02-07 09:58:00,38.8,31.6,29.23,North,0,1.1,0.0,75,0.00,,SKC,0.00,WeatherDisplay:10.37,2013-02-07 14:58:00,
2013-02-07 10:03:00,39.0,32.1,29.22,NE,45,0.0,0.0,76,0.00,,SKC,0.00,WeatherDisplay:10.37,2013-02-07 15:03:00,
2013-02-07 10:08:00,39.2,32.3,29.22,NE,45,1.1,0.0,76,0.00,,SKC,0.00,WeatherDisplay:10.37,2013-02-07 15:08:00,
2013-02-07 10:13:00,39.6,32.3,29.22,SE,135,1.1,0.0,75,0.00,,SKC,0.00,WeatherDisplay:10.37,2013-02-07 15:13:00,
2013-02-07 10:18:00,39.7,32.5,29.22,North,0,0.0,0.0,75,0.00,,SKC,0.00,WeatherDisplay:10.37,2013-02-07 15:18:00,
2013-02-07 10:23:00,39.9,32.6,29.22,NE,45,0.0,0.0,75,0.00,,SKC,0.00,WeatherDisplay:10.37,2013-02-07 15:23:00,
2013-02-07 10:28:00,39.9,33.0,29.22,SE,135,0.0,0.0,76,0.00,,SKC,0.00,WeatherDisplay:10.37,2013-02-07 15:28:00,
2013-02-07 10:33:00,39.9,33.0,29.22,North,0,1.1,0.0,76,0.00,,SKC,0.00,WeatherDisplay:10.37,2013-02-07 15:33:00,
2013-02-07 10:38:00,39.9,33.0,29.22,NE,45,1.1,0.0,76,0.00,,SKC,0.00,WeatherDisplay:10.37,2013-02-07 15:38:00,
2013-02-07 10:43:00,40.5,32.8,29.21,North,0,1.1,0.0,74,0.00,,SKC,0.00,WeatherDisplay:10.37,2013-02-07 15:43:00,
2013-02-07 10:48:00,40.6,33.0,29.21,North,0,1.1,0.0,74,0.00,,SKC,0.00,WeatherDisplay:10.37,2013-02-07 15:48:00,
2013-02-07 10:53:00,40.8,33.2,29.22,South,180,1.1,0.0,74,0.00,,SKC,0.00,WeatherDisplay:10.37,2013-02-07 15:53:00,
2013-02-07 10:58:00,40.8,33.2,29.21,SE,135,1.1,0.0,74,0.00,,SKC,0.00,WeatherDisplay:10.37,2013-02-07 15:58:00,
2013-02-07 11:03:00,41.0,33.3,29.20,South,180,1.1,0.0,74,0.00,,SKC,0.00,WeatherDisplay:10.37,2013-02-07 16:03:00,
2013-02-07 11:08:00,41.4,33.7,29.20,NE,45,1.1,0.0,74,0.00,,SKC,0.00,WeatherDisplay:10.37,2013-02-07 16:08:00,
2013-02-07 11:13:00,41.5,33.9,29.20,SE,135,1.1,0.0,74,0.00,,SKC,0.00,WeatherDisplay:10.37,2013-02-07 16:13:00,
2013-02-07 11:18:00,41.5,33.9,29.19,South,180,1.1,0.0,74,0.00,,SKC,0.00,WeatherDisplay:10.37,2013-02-07 16:18:00,
2013-02-07 11:23:00,41.5,33.9,29.18,SE,135,1.1,0.0,74,0.00,,SKC,0.00,WeatherDisplay:10.37,2013-02-07 16:23:00,
2013-02-07 11:28:00,41.5,33.9,29.18,SE,135,1.1,0.0,74,0.00,,SKC,0.00,WeatherDisplay:10.37,2013-02-07 16:28:00,
2013-02-07 11:33:00,41.5,33.9,29.18,North,0,1.1,0.0,74,0.00,,SKC,0.00,WeatherDisplay:10.37,2013-02-07 16:33:00,
2013-02-07 11:38:00,41.5,33.9,29.18,South,180,1.1,0.0,74,0.00,,SKC,0.00,WeatherDisplay:10.37,2013-02-07 16:38:00,
2013-02-07 11:43:00,41.7,34.0,29.18,ESE,112,1.1,0.0,74,0.00,,SKC,0.00,WeatherDisplay:10.37,2013-02-07 16:43:00,
2013-02-07 11:48:00,41.9,34.2,29.18,NE,45,1.1,0.0,74,0.00,,SKC,0.00,WeatherDisplay:10.37,2013-02-07 16:48:00,
2013-02-07 11:53:00,41.7,34.0,29.18,North,0,0.0,0.0,74,0.00,,SKC,0.00,WeatherDisplay:10.37,2013-02-07 16:53:00,
2013-02-07 11:58:00,41.7,34.0,29.18,NE,45,1.1,0.0,74,0.00,,SKC,0.00,WeatherDisplay:10.37,2013-02-07 16:58:00,
2013-02-07 12:03:00,41.9,34.2,29.17,SE,135,1.1,0.0,74,0.00,,SKC,0.00,WeatherDisplay:10.37,2013-02-07 17:03:00,
2013-02-07 12:08:00,41.7,34.0,29.16,East,90,0.0,0.0,74,0.00,,SKC,0.00,WeatherDisplay:10.37,2013-02-07 17:08:00,
2013-02-07 12:13:00,42.1,34.7,29.16,North,0,0.0,0.0,75,0.00,,SKC,0.00,WeatherDisplay:10.37,2013-02-07 17:13:00,
2013-02-07 12:18:00,42.1,34.4,29.16,NE,45,1.1,0.0,74,0.00,,SKC,0.00,WeatherDisplay:10.37,2013-02-07 17:18:00,
2013-02-07 12:23:00,42.1,34.4,29.15,East,90,1.1,0.0,74,0.00,,SKC,0.00,WeatherDisplay:10.37,2013-02-07 17:23:00,
2013-02-07 12:28:00,42.1,34.4,29.15,East,90,0.0,0.0,74,0.00,,SKC,0.00,WeatherDisplay:10.37,2013-02-07 17:28:00,
2013-02-07 12:33:00,42.3,34.2,29.14,West,270,1.1,0.0,73,0.00,,SKC,0.00,WeatherDisplay:10.37,2013-02-07 17:33:00,
2013-02-07 12:38:00,42.6,34.6,29.14,NE,45,1.1,0.0,73,0.00,,SKC,0.00,WeatherDisplay:10.37,2013-02-07 17:38:00,
2013-02-07 12:43:00,42.8,34.7,29.14,East,90,1.1,0.0,73,0.00,,SKC,0.00,WeatherDisplay:10.37,2013-02-07 17:43:00,
2013-02-07 12:48:00,43.0,34.9,29.14,East,90,0.0,0.0,73,0.00,,SKC,0.00,WeatherDisplay:10.37,2013-02-07 17:48:00,
2013-02-07 12:53:00,43.2,34.7,29.14,South,180,1.1,0.0,72,0.00,,SKC,0.00,WeatherDisplay:10.37,2013-02-07 17:53:00,
2013-02-07 12:58:00,43.2,35.1,29.14,SE,135,1.1,0.0,73,0.00,,SKC,0.00,WeatherDisplay:10.37,2013-02-07 17:58:00,
2013-02-07 13:03:00,43.2,34.7,29.14,NNW,338,0.0,0.0,72,0.00,,SKC,0.00,WeatherDisplay:10.37,2013-02-07 18:03:00,
2013-02-07 13:08:00,43.0,34.9,29.13,South,180,0.0,0.0,73,0.00,,SKC,0.00,WeatherDisplay:10.37,2013-02-07 18:08:00,
2013-02-07 13:13:00,43.0,34.9,29.13,ESE,112,1.1,0.0,73,0.00,,SKC,0.00,WeatherDisplay:10.37,2013-02-07 18:13:00,
2013-02-07 13:18:00,42.8,34.7,29.13,South,180,1.1,0.0,73,0.00,,SKC,0.00,WeatherDisplay:10.37,2013-02-07 18:18:00,
2013-02-07 13:23:00,42.6,34.9,29.12,East,90,1.1,0.0,74,0.00,,SKC,0.00,WeatherDisplay:10.37,2013-02-07 18:23:00,
2013-02-07 13:28:00,42.4,34.7,29.12,SE,135,1.1,0.0,74,0.00,,SKC,0.00,WeatherDisplay:10.37,2013-02-07 18:28:00,
2013-02-07 13:33:00,42.3,34.9,29.12,NE,45,0.0,0.0,75,0.00,,SKC,0.00,WeatherDisplay:10.37,2013-02-07 18:33:00,
2013-02-07 13:38:00,41.9,35.5,29.12,East,90,1.1,0.0,78,0.00,,SKC,0.00,WeatherDisplay:10.37,2013-02-07 18:38:00,
2013-02-07 13:43:00,41.7,36.3,29.12,NNE,22,1.1,0.0,81,0.01,RA,SKC,0.01,WeatherDisplay:10.37,2013-02-07 18:43:00,
2013-02-07 13:48:00,41.5,36.8,29.12,North,0,1.1,0.0,83,0.01,RA,SKC,0.01,WeatherDisplay:10.37,2013-02-07 18:48:00,
2013-02-07 13:53:00,41.2,36.7,29.12,SE,135,1.1,0.0,84,0.01,,SKC,0.01,WeatherDisplay:10.37,2013-02-07 18:53:00,
2013-02-07 13:58:00,41.0,36.5,29.12,NE,45,1.1,0.0,84,0.02,RA,SKC,0.02,WeatherDisplay:10.37,2013-02-07 18:58:00,
2013-02-07 14:03:00,40.8,36.7,29.12,North,0,1.1,0.0,85,0.02,RA,SKC,0.02,WeatherDisplay:10.37,2013-02-07 19:03:00,
2013-02-07 14:08:00,40.6,36.8,29.12,North,0,1.1,0.0,86,0.04,RA,SKC,0.04,WeatherDisplay:10.37,2013-02-07 19:08:00,
2013-02-07 14:13:00,40.5,36.9,29.11,SW,225,1.1,0.0,87,0.05,RA,SKC,0.05,WeatherDisplay:10.37,2013-02-07 19:13:00,
2013-02-07 14:18:00,40.5,37.2,29.11,ENE,68,1.1,0.0,88,0.06,RA,SKC,0.06,WeatherDisplay:10.37,2013-02-07 19:18:00,
2013-02-07 14:23:00,40.3,37.6,29.11,South,180,1.1,0.0,90,0.06,RA,SKC,0.06,WeatherDisplay:10.37,2013-02-07 19:23:00,
2013-02-07 14:28:00,40.3,38.1,29.11,NW,315,1.1,0.0,92,0.07,RA,SKC,0.07,WeatherDisplay:10.37,2013-02-07 19:28:00,
2013-02-07 14:33:00,40.1,38.0,29.11,North,0,1.1,0.0,92,0.08,RA,SKC,0.08,WeatherDisplay:10.37,2013-02-07 19:33:00,
2013-02-07 14:38:00,39.9,38.1,29.11,North,0,1.1,0.0,93,0.09,RA,SKC,0.09,WeatherDisplay:10.37,2013-02-07 19:38:00,
2013-02-07 14:43:00,39.7,37.9,29.12,South,180,1.1,0.0,93,0.08,RA,SKC,0.09,WeatherDisplay:10.37,2013-02-07 19:43:00,
2013-02-07 14:48:00,39.7,38.2,29.11,South,180,1.1,0.0,94,0.09,RA,SKC,0.11,WeatherDisplay:10.37,2013-02-07 19:48:00,
2013-02-07 14:53:00,39.7,38.2,29.11,NE,45,1.1,0.0,94,0.11,RA,SKC,0.12,WeatherDisplay:10.37,2013-02-07 19:53:00,
2013-02-07 14:58:00,39.6,38.0,29.11,East,90,1.1,0.0,94,0.11,RA,SKC,0.13,WeatherDisplay:10.37,2013-02-07 19:58:00,
2013-02-07 15:04:00,39.6,38.2,29.11,East,90,0.0,0.0,95,0.11,RA,SKC,0.13,WeatherDisplay:10.37,2013-02-07 20:04:00,
2013-02-07 15:09:00,39.4,38.1,29.11,SE,135,1.1,0.0,95,0.11,RA,SKC,0.14,WeatherDisplay:10.37,2013-02-07 20:09:00,
2013-02-07 15:14:00,39.2,37.9,29.11,NE,45,1.1,0.0,95,0.09,RA,SKC,0.14,WeatherDisplay:10.37,2013-02-07 20:14:00,
2013-02-07 15:19:00,39.2,37.9,29.11,East,90,1.1,0.0,95,0.09,RA,SKC,0.15,WeatherDisplay:10.37,2013-02-07 20:19:00,
2013-02-07 15:24:00,39.2,37.9,29.11,North,0,1.1,0.0,95,0.11,RA,SKC,0.17,WeatherDisplay:10.37,2013-02-07 20:24:00,
2013-02-07 15:29:00,39.2,38.2,29.11,South,180,1.1,0.0,96,0.12,RA,SKC,0.19,WeatherDisplay:10.37,2013-02-07 20:29:00,
2013-02-07 15:34:00,39.2,38.2,29.11,East,90,1.1,0.0,96,0.12,RA,SKC,0.20,WeatherDisplay:10.37,2013-02-07 20:34:00,
2013-02-07 15:39:00,39.0,38.0,29.10,South,180,1.1,0.0,96,0.12,RA,SKC,0.21,WeatherDisplay:10.37,2013-02-07 20:39:00,
2013-02-07 15:44:00,39.2,38.4,29.10,East,90,1.1,0.0,97,0.13,RA,SKC,0.22,WeatherDisplay:10.37,2013-02-07 20:44:00,
2013-02-07 15:49:00,39.2,38.4,29.10,East,90,1.1,0.0,97,0.12,RA,SKC,0.22,WeatherDisplay:10.37,2013-02-07 20:49:00,
2013-02-07 15:54:00,39.2,38.4,29.10,NW,315,1.1,0.0,97,0.12,RA,SKC,0.24,WeatherDisplay:10.37,2013-02-07 20:54:00,
2013-02-07 15:59:00,39.0,38.2,29.10,NNE,22,1.1,0.0,97,0.12,RA,SKC,0.25,WeatherDisplay:10.37,2013-02-07 20:59:00,
2013-02-07 16:04:00,39.0,38.5,29.10,NE,45,1.1,1.1,98,0.13,RA,SKC,0.26,WeatherDisplay:10.37,2013-02-07 21:04:00,
2013-02-07 16:09:00,38.8,38.3,29.10,NE,45,1.1,1.1,98,0.12,RA,SKC,0.26,WeatherDisplay:10.37,2013-02-07 21:09:00,
2013-02-07 16:14:00,38.8,38.3,29.09,South,180,2.3,2.3,98,0.13,RA,SKC,0.27,WeatherDisplay:10.37,2013-02-07 21:14:00,
2013-02-07 16:19:00,38.8,38.3,29.09,East,90,2.3,2.3,98,0.12,RA,SKC,0.27,WeatherDisplay:10.37,2013-02-07 21:19:00,
2013-02-07 16:24:00,38.8,38.3,29.09,NE,45,3.5,3.5,98,0.11,,SKC,0.28,WeatherDisplay:10.37,2013-02-07 21:24:00,
2013-02-07 16:29:00,38.8,38.6,29.09,NE,45,1.1,1.1,99,0.09,RA,SKC,0.28,WeatherDisplay:10.37,2013-02-07 21:29:00,
2013-02-07 16:34:00,38.7,38.4,29.08,North,0,2.3,2.3,99,0.09,RA,SKC,0.30,WeatherDisplay:10.37,2013-02-07 21:34:00,
2013-02-07 16:39:00,38.7,38.4,29.08,NE,45,1.1,0.0,99,0.08,RA,SKC,0.30,WeatherDisplay:10.37,2013-02-07 21:39:00,
2013-02-07 16:44:00,38.7,38.4,29.08,NE,45,1.1,0.0,99,0.07,,SKC,0.30,WeatherDisplay:10.37,2013-02-07 21:44:00,
2013-02-07 16:49:00,38.7,38.4,29.08,North,0,2.3,2.3,99,0.07,,SKC,0.30,WeatherDisplay:10.37,2013-02-07 21:49:00,
2013-02-07 16:54:00,38.7,38.4,29.08,North,0,2.3,2.3,99,0.07,RA,SKC,0.31,WeatherDisplay:10.37,2013-02-07 21:54:00,
2013-02-07 16:59:00,38.7,38.4,29.08,NW,315,2.3,2.3,99,0.06,RA,SKC,0.31,WeatherDisplay:10.37,2013-02-07 21:59:00,
2013-02-07 17:04:00,38.7,38.4,29.08,North,0,2.3,0.0,99,0.05,,SKC,0.31,WeatherDisplay:10.37,2013-02-07 22:04:00,
2013-02-07 17:09:00,38.7,38.4,29.07,North,0,3.5,3.5,99,0.06,RA,SKC,0.32,WeatherDisplay:10.37,2013-02-07 22:09:00,
2013-02-07 17:14:00,38.5,38.2,29.07,North,0,1.1,0.0,99,0.05,RA,SKC,0.32,WeatherDisplay:10.37,2013-02-07 22:14:00,
2013-02-07 17:19:00,38.5,38.2,29.07,NE,45,1.1,0.0,99,0.05,,SKC,0.32,WeatherDisplay:10.37,2013-02-07 22:19:00,
2013-02-07 17:24:00,38.5,38.2,29.07,North,0,1.1,0.0,99,0.05,,SKC,0.32,WeatherDisplay:10.37,2013-02-07 22:24:00,
2013-02-07 17:29:00,38.5,38.2,29.07,North,0,2.3,0.0,99,0.04,,SKC,0.32,WeatherDisplay:10.37,2013-02-07 22:29:00,
2013-02-07 17:34:00,38.5,38.2,29.07,NE,45,3.5,0.0,99,0.04,RA,SKC,0.33,WeatherDisplay:10.37,2013-02-07 22:34:00,
2013-02-07 17:39:00,38.5,38.2,29.07,NE,45,1.1,0.0,99,0.04,RA,SKC,0.33,WeatherDisplay:10.37,2013-02-07 22:39:00,
2013-02-07 17:44:00,38.5,38.2,29.07,NW,315,2.3,2.3,99,0.04,,SKC,0.33,WeatherDisplay:10.37,2013-02-07 22:44:00,
2013-02-07 17:49:00,38.3,38.0,29.07,East,90,3.5,3.5,99,0.04,,SKC,0.33,WeatherDisplay:10.37,2013-02-07 22:49:00,
2013-02-07 17:54:00,38.3,38.0,29.06,SE,135,3.5,3.5,99,0.04,RA,SKC,0.34,WeatherDisplay:10.37,2013-02-07 22:54:00,
2013-02-07 17:59:00,38.3,38.0,29.06,NW,315,1.1,0.0,99,0.04,RA,SKC,0.34,WeatherDisplay:10.37,2013-02-07 22:59:00,
2013-02-07 18:04:00,38.3,38.0,29.07,East,90,2.3,0.0,99,0.04,,SKC,0.34,WeatherDisplay:10.37,2013-02-07 23:04:00,
2013-02-07 18:09:00,38.3,38.0,29.07,SE,135,3.5,3.5,99,0.02,,SKC,0.34,WeatherDisplay:10.37,2013-02-07 23:09:00,
2013-02-07 18:14:00,38.3,38.0,29.06,North,0,2.3,2.3,99,0.02,,SKC,0.34,WeatherDisplay:10.37,2013-02-07 23:14:00,
2013-02-07 18:19:00,38.3,38.0,29.06,NE,45,3.5,3.5,99,0.02,,SKC,0.34,WeatherDisplay:10.37,2013-02-07 23:19:00,
2013-02-07 18:24:00,38.3,38.0,29.06,South,180,3.5,3.5,99,0.02,,SKC,0.35,WeatherDisplay:10.37,2013-02-07 23:24:00,
2013-02-07 18:29:00,38.1,37.9,29.06,North,0,2.3,2.3,99,0.04,RA,SKC,0.35,WeatherDisplay:10.37,2013-02-07 23:29:00,
2013-02-07 18:34:00,38.1,37.9,29.05,NE,45,3.5,3.5,99,0.02,RA,SKC,0.35,WeatherDisplay:10.37,2013-02-07 23:34:00,
2013-02-07 18:39:00,38.1,37.9,29.04,North,0,3.5,3.5,99,0.02,,SKC,0.35,WeatherDisplay:10.37,2013-02-07 23:39:00,
2013-02-07 18:44:00,38.1,37.9,29.04,South,180,2.3,2.3,99,0.04,RA,SKC,0.37,WeatherDisplay:10.37,2013-02-07 23:44:00,
2013-02-07 18:49:00,38.1,37.9,29.04,North,0,3.5,3.5,99,0.04,RA,SKC,0.37,WeatherDisplay:10.37,2013-02-07 23:49:00,
2013-02-07 18:54:00,37.9,37.7,29.04,South,180,3.5,3.5,99,0.04,RA,SKC,0.38,WeatherDisplay:10.37,2013-02-07 23:54:00,
2013-02-07 18:59:00,37.9,37.7,29.04,North,0,4.6,4.6,99,0.04,RA,SKC,0.38,WeatherDisplay:10.37,2013-02-07 23:59:00,
2013-02-07 19:04:00,37.9,37.7,29.04,NE,45,1.1,1.1,99,0.04,,SKC,0.38,WeatherDisplay:10.37,2013-02-08 00:04:00,
2013-02-07 19:09:00,37.8,37.5,29.04,ENE,68,3.5,3.5,99,0.04,,SKC,0.38,WeatherDisplay:10.37,2013-02-08 00:09:00,
2013-02-07 19:14:00,37.8,37.5,29.04,South,180,2.3,2.3,99,0.05,RA,SKC,0.39,WeatherDisplay:10.37,2013-02-08 00:14:00,
2013-02-07 19:19:00,37.8,37.5,29.04,NE,45,3.5,3.5,99,0.06,RA,SKC,0.40,WeatherDisplay:10.37,2013-02-08 00:19:00,
2013-02-07 19:24:00,37.6,37.3,29.04,East,90,4.6,0.0,99,0.06,RA,SKC,0.40,WeatherDisplay:10.37,2013-02-08 00:24:00,
2013-02-07 19:29:00,37.6,37.3,29.03,NNE,22,2.3,0.0,99,0.06,RA,SKC,0.41,WeatherDisplay:10.37,2013-02-08 00:29:00,
2013-02-07 19:34:00,37.6,37.3,29.03,NW,315,1.1,0.0,99,0.06,RA,SKC,0.41,WeatherDisplay:10.37,2013-02-08 00:34:00,
2013-02-07 19:39:00,37.6,37.3,29.03,South,180,1.1,0.0,99,0.06,,SKC,0.41,WeatherDisplay:10.37,2013-02-08 00:39:00,
2013-02-07 19:44:00,37.6,37.3,29.03,NE,45,1.1,0.0,99,0.05,,SKC,0.41,WeatherDisplay:10.37,2013-02-08 00:44:00,
2013-02-07 19:49:00,37.6,37.3,29.03,East,90,2.3,2.3,99,0.06,RA,SKC,0.43,WeatherDisplay:10.37,2013-02-08 00:49:00,
2013-02-07 19:54:00,37.6,37.3,29.02,ESE,112,2.3,2.3,99,0.05,RA,SKC,0.43,WeatherDisplay:10.37,2013-02-08 00:54:00,
2013-02-07 19:59:00,37.6,37.3,29.03,West,270,2.3,2.3,99,0.05,,SKC,0.43,WeatherDisplay:10.37,2013-02-08 00:59:00,
2013-02-07 20:04:00,37.6,37.3,29.03,ENE,68,2.3,0.0,99,0.06,RA,SKC,0.44,WeatherDisplay:10.37,2013-02-08 01:04:00,
2013-02-07 20:10:00,37.6,37.3,29.03,SE,135,1.1,0.0,99,0.06,RA,SKC,0.44,WeatherDisplay:10.37,2013-02-08 01:10:00,
2013-02-07 20:15:00,37.4,37.1,29.03,South,180,1.1,1.1,99,0.05,,SKC,0.44,WeatherDisplay:10.37,2013-02-08 01:15:00,
2013-02-07 20:20:00,37.4,37.1,29.03,North,0,2.3,0.0,99,0.05,RA,SKC,0.45,WeatherDisplay:10.37,2013-02-08 01:20:00,
2013-02-07 20:25:00,37.4,37.1,29.03,NE,45,1.1,0.0,99,0.05,RA,SKC,0.45,WeatherDisplay:10.37,2013-02-08 01:25:00,
2013-02-07 20:30:00,37.4,37.1,29.03,North,0,1.1,0.0,99,0.04,,SKC,0.45,WeatherDisplay:10.37,2013-02-08 01:30:00,
2013-02-07 20:35:00,37.2,37.0,29.03,NE,45,1.1,1.1,99,0.04,,SKC,0.45,WeatherDisplay:10.37,2013-02-08 01:35:00,
2013-02-07 20:40:00,37.2,37.0,29.02,North,0,1.1,0.0,99,0.05,RA,SKC,0.46,WeatherDisplay:10.37,2013-02-08 01:40:00,
2013-02-07 20:45:00,37.2,37.0,29.03,ESE,112,1.1,1.1,99,0.05,RA,SKC,0.46,WeatherDisplay:10.37,2013-02-08 01:45:00,
2013-02-07 20:50:00,37.2,37.0,29.03,East,90,1.1,0.0,99,0.05,RA,SKC,0.47,WeatherDisplay:10.37,2013-02-08 01:50:00,
2013-02-07 20:55:00,37.2,37.0,29.02,SE,135,2.3,0.0,99,0.05,RA,SKC,0.47,WeatherDisplay:10.37,2013-02-08 01:55:00,
2013-02-07 21:00:00,37.2,37.0,29.02,ENE,68,1.1,0.0,99,0.05,,SKC,0.47,WeatherDisplay:10.37,2013-02-08 02:00:00,
2013-02-07 21:05:00,37.2,37.0,29.02,ENE,68,1.1,0.0,99,0.04,,SKC,0.47,WeatherDisplay:10.37,2013-02-08 02:05:00,
2013-02-07 21:10:00,37.2,37.0,29.02,North,0,1.1,1.1,99,0.05,RA,SKC,0.48,WeatherDisplay:10.37,2013-02-08 02:10:00,
2013-02-07 21:15:00,37.2,37.0,29.03,NW,315,1.1,1.1,99,0.05,RA,SKC,0.48,WeatherDisplay:10.37,2013-02-08 02:15:00,
2013-02-07 21:20:00,37.2,37.0,29.02,NW,315,2.3,2.3,99,0.05,RA,SKC,0.50,WeatherDisplay:10.37,2013-02-08 02:20:00,
2013-02-07 21:25:00,37.2,37.0,29.02,SW,225,3.5,3.5,99,0.05,RA,SKC,0.50,WeatherDisplay:10.37,2013-02-08 02:25:00,
2013-02-07 21:30:00,37.2,37.0,29.02,SE,135,2.3,2.3,99,0.05,,SKC,0.50,WeatherDisplay:10.37,2013-02-08 02:30:00,
2013-02-07 21:35:00,37.2,37.0,29.02,North,0,1.1,1.1,99,0.05,,SKC,0.50,WeatherDisplay:10.37,2013-02-08 02:35:00,
2013-02-07 21:40:00,37.2,37.0,29.02,South,180,3.5,3.5,99,0.04,,SKC,0.50,WeatherDisplay:10.37,2013-02-08 02:40:00,
2013-02-07 21:45:00,37.0,36.8,29.02,SE,135,1.1,0.0,99,0.05,RA,SKC,0.51,WeatherDisplay:10.37,2013-02-08 02:45:00,
2013-02-07 21:50:00,37.0,36.8,29.02,South,180,2.3,2.3,99,0.04,RA,SKC,0.51,WeatherDisplay:10.37,2013-02-08 02:50:00,
2013-02-07 21:55:00,37.0,36.8,29.02,South,180,2.3,2.3,99,0.04,RA,SKC,0.51,WeatherDisplay:10.37,2013-02-08 02:55:00,
2013-02-07 22:00:00,37.0,36.8,29.01,SW,225,3.5,0.0,99,0.04,,SKC,0.51,WeatherDisplay:10.37,2013-02-08 03:00:00,
2013-02-07 22:05:00,37.0,36.8,29.01,SW,225,1.1,0.0,99,0.04,,SKC,0.51,WeatherDisplay:10.37,2013-02-08 03:05:00,
2013-02-07 22:10:00,37.0,36.8,29.01,East,90,2.3,2.3,99,0.02,,SKC,0.51,WeatherDisplay:10.37,2013-02-08 03:10:00,
2013-02-07 22:15:00,37.0,36.8,29.01,SW,225,2.3,2.3,99,0.04,RA,SKC,0.52,WeatherDisplay:10.37,2013-02-08 03:15:00,
2013-02-07 22:20:00,37.0,36.8,29.00,North,0,2.3,2.3,99,0.02,RA,SKC,0.52,WeatherDisplay:10.37,2013-02-08 03:20:00,
2013-02-07 22:25:00,37.0,36.8,29.00,NE,45,1.1,0.0,99,0.02,,SKC,0.52,WeatherDisplay:10.37,2013-02-08 03:25:00,
2013-02-07 22:30:00,36.9,36.6,29.00,North,0,3.5,3.5,99,0.02,,SKC,0.52,WeatherDisplay:10.37,2013-02-08 03:30:00,
2013-02-07 22:35:00,36.9,36.6,29.00,NE,45,1.1,0.0,99,0.02,,SKC,0.52,WeatherDisplay:10.37,2013-02-08 03:35:00,
2013-02-07 22:40:00,36.9,36.6,29.00,North,0,1.1,0.0,99,0.02,,SKC,0.52,WeatherDisplay:10.37,2013-02-08 03:40:00,
2013-02-07 22:45:00,36.9,36.6,28.99,NE,45,1.1,0.0,99,0.02,,SKC,0.52,WeatherDisplay:10.37,2013-02-08 03:45:00,
2013-02-07 22:50:00,37.0,36.8,28.99,NE,45,1.1,1.1,99,0.01,,SKC,0.52,WeatherDisplay:10.37,2013-02-08 03:50:00,
2013-02-07 22:55:00,37.0,36.8,28.99,NW,315,3.5,3.5,99,0.02,RA,SKC,0.53,WeatherDisplay:10.37,2013-02-08 03:55:00,
2013-02-07 23:00:00,37.0,36.8,28.99,NE,45,1.1,1.6,99,0.02,RA,SKC,0.53,WeatherDisplay:10.37,2013-02-08 04:00:00,
2013-02-07 23:05:00,37.0,36.8,28.98,NE,45,3.5,3.5,99,0.02,,SKC,0.53,WeatherDisplay:10.37,2013-02-08 04:05:00,
2013-02-07 23:10:00,37.0,36.8,28.98,SW,225,1.1,0.0,99,0.02,,SKC,0.53,WeatherDisplay:10.37,2013-02-08 04:10:00,
2013-02-07 23:15:00,37.0,36.8,28.98,North,0,2.3,2.3,99,0.01,,SKC,0.53,WeatherDisplay:10.37,2013-02-08 04:15:00,
2013-02-07 23:20:00,37.0,36.8,28.98,SE,135,2.3,2.3,99,0.02,RA,SKC,0.54,WeatherDisplay:10.37,2013-02-08 04:20:00,
2013-02-07 23:25:00,37.0,36.8,28.98,NE,45,1.1,0.0,99,0.02,RA,SKC,0.54,WeatherDisplay:10.37,2013-02-08 04:25:00,
2013-02-07 23:30:00,37.0,36.8,28.98,NE,45,1.1,0.0,99,0.02,,SKC,0.54,WeatherDisplay:10.37,2013-02-08 04:30:00,
2013-02-07 23:35:00,37.0,36.8,28.98,North,0,1.1,0.0,99,0.02,,SKC,0.54,WeatherDisplay:10.37,2013-02-08 04:35:00,
2013-02-07 23:40:00,37.0,36.8,28.98,SE,135,1.1,0.0,99,0.02,,SKC,0.54,WeatherDisplay:10.37,2013-02-08 04:40:00,
2013-02-07 23:45:00,37.0,36.8,28.98,North,0,1.1,0.0,99,0.02,,SKC,0.54,WeatherDisplay:10.37,2013-02-08 04:45:00,
2013-02-07 23:50:00,37.0,36.8,28.97,East,90,1.1,0.0,99,0.02,,SKC,0.54,WeatherDisplay:10.37,2013-02-08 04:50:00,
2013-02-07 23:55:00,37.0,36.8,28.97,East,90,1.1,1.1,99,0.01,,SKC,0.54,WeatherDisplay:10.37,2013-02-08 04:55:00,